User: anonymous   Login
Location: Caltech
(34.1382°N, 118.1253°W)
Time: 09:58:24
(UTC-08:00)
Language:

OAO 1 Rocket - Orbit

View from above orbital plane
View from above orbital plane
View from above satellite
View from above satellite

Ground track
Ground track

The orbit data is extracted from the following two-line orbital elements,

1 02144U 66031B   14354.99911323  .00000741  00000-0  22748-3 0  7942
2 02144 035.0408 195.2876 0008141 133.0647 227.0725 14.42279406556751
Epoch (UTC): 20 December 2014 23:58:43
Eccentricity: 0.0008141
inclination: 35.0408°
perigee height: 745 km
apogee height: 757 km
right ascension of ascending node: 195.2876°
argument of perigee: 133.0647°
revolutions per day: 14.42279406
mean anomaly at epoch: 227.0725°
orbit number at epoch: 55675

The dashed part of the orbit path shows where the satellite is in the earth's shadow,  

DLR